www.pogodaiklimat.ru

Погода и климат >> Архив погоды >> Антарктида >> SANAE


ПОГОДА в SANAE

  • Прогноз погоды в SANAE
  • Монитор погоды в SANAE
  • Климат города

АРХИВ ПОГОДЫ в SANAE

Время (UTC), дата Ветер
(напр.,м/с)
 
Видим.   Явления Облачность Т
(С)
Тd
(С)
f
(%)
Тe
(С)
Тes
(С)
Комфортность P
(гПа)
Po
(гПа)
Тmin
(С)
Tmax
(С)
R
(мм)
R24
(мм)
S
(см)
06 12.12 В 10 >70 км позёмок {метель} ясно -5.7 991.8 890.7 -7.6
09 12.12 ЮВ 8 >70 км 1/1 300 м
[Sc]
-3.5 990.1 890.0 -7.6 -2.5
12 12.12 ЮВ 6 >70 км ясно -1.3 987.9 888.8 -7.6 -1.1
15 12.12 СЗ 3 н/о н/о -1.3 986.5 887.5 -1.9 +0.6
18 12.12 С 2 >70 км ясно -2.8 986.5 887.0 -2.8 +0.6
21 12.12 СВ 5 н/о н/о -7.2 989.2 887.9 -7.3 +0.6
00 13.12 В 2 н/о н/о -5.4 988.4 887.8 -7.5 +0.6
03 13.12 ЮВ 3 н/о н/о -6.6 987.1 886.2 -8.2 +0.6
06 13.12 В 8 >70 км ясно -6.8 985.2 884.4 -8.2
09 13.12 В 11 >70 км позёмок {метель} 1/0 1500 м
[Ac trans]
-5.8 983.7 883.4 -8.2 -5.3
12 13.12 С 8 >70 км позёмок {метель} 1/1 1500 м
[Sc]
-6.0 985.2 884.7 -6.7 -5.3
15 13.12 В 4 >70 км ясно -6.7 985.1 884.4 -7.0 -5.3
18 13.12 Ю 2 >70 км ясно -6.2 982.8 882.5 -7.0 -5.3
21 13.12 ЮЗ 3 >70 км ясно -5.3 980.2 880.5 -7.0 -5.1
00 14.12 ЮВ 2 н/о н/о -5.6 978.7 879.0 -7.0 -5.1
03 14.12 В 5 н/о н/о -7.3 978.2 878.0 -7.5 -4.0
06 14.12 В 5 >70 км 8/8 300 м
[Sc]
-8.2 978.4 877.8 -8.6
09 14.12 В 7 >70 км 8/8 300 м
[Sc]
-5.8 977.3 877.7 -8.6 -5.8
12 14.12 В 8 >70 км 9/8 600 м
[Sc]
-5.5 977.7 878.1 -8.6 -4.4
15 14.12 ЮВ 4 н/о н/о -5.3 977.7 878.2 -5.5 -4.4
18 14.12 В 3 н/о н/о -4.8 976.8 877.6 -5.5 -4.3
21 14.12 В 6 н/о н/о -7.4 978.0 877.7 -7.5 -4.3
00 15.12 В 7 н/о н/о -9.7 979.4 878.2 -9.7 -4.3
03 15.12 В 13 н/о н/о -10.0 979.9 878.5 -10.3 -4.3
06 15.12 В 12 <100 м слабый снег {метель} 10/4 300 м
[Sc As op]
-9.9 982.5 880.9 -10.4
09 15.12 В 13 н/о н/о -9.8 983.8 882.1 -10.4 -9.5
12 15.12 В 12 <100 м слабый снег 10/0 600 м
[As op]
-9.3 984.8 883.2 -10.4 -9.0
15 15.12 В 11 н/о н/о -9.2 984.5 882.9 -9.6 -8.9
18 15.12 В 11 >70 км позёмок {снег} 9/5 300 м
[Sc As op]
-9.9 984.1 882.3 -10.4 -8.9
21 15.12 В 9 >70 км позёмок {метель} 9/9 300 м
[Sc As op]
-10.5 984.3 882.3 -11.0 -8.9
00 16.12 В 9 н/о н/о -9.3 983.7 882.2 -11.0 -8.9
03 16.12 В 9 н/о н/о -9.5 983.9 882.3 -11.0 -8.9
06 16.12 В 10 н/о н/о -9.0 984.2 882.7 -11.0
09 16.12 В 10 н/о н/о -8.3 984.7 883.4 -11.0 -8.2
12 16.12 В 10 >70 км позёмок {метель} 10/5 300 м
[Sc As op]
-7.5 984.9 883.9 -11.0 -7.1
15 16.12 В 10 н/о н/о -7.4 986.0 884.9 -7.8 -6.8
18 16.12 В 9 >70 км позёмок {снег} 9/8 300 м
[Sc]
-7.0 986.3 885.3 -7.8 -6.6
21 16.12 В 8 н/о н/о -8.7 987.6 885.9 -9.6 -6.6
00 17.12 В 8 н/о н/о -8.1 987.9 886.4 -9.6 -6.6
03 17.12 В 7 н/о н/о -9.9 988.7 886.4 -10.2 -6.6
06 17.12 В 4 н/о н/о -9.4 989.7 887.5 -10.4
09 17.12 В 3 >70 км 1/1 300 м
[Sc]
-6.6 989.9 888.7 -10.4 -6.5
12 17.12 В 4 >70 км 1/1 300 м
[Sc]
-5.4 990.4 889.6 -10.4 -5.4
15 17.12 СВ 4 н/о н/о -5.6 991.3 890.3 -6.0 -5.3
18 17.12 В 4 >70 км 3/1 300 м
[Sc Ci]
-7.2 993.0 891.3 -7.2 -5.3
21 17.12 В 6 н/о н/о -9.2 995.5 892.8 -9.2 -5.3
00 18.12 В 10 н/о н/о -9.2 995.6 892.9 -9.3 -5.3
03 18.12 В 10 н/о н/о -8.1 996.4 894.0 -9.5 -5.3
06 18.12 В 13 >70 км позёмок {метель} 9/9 300 м
[Sc]
-7.6 997.4 895.1 -9.5
09 18.12 В 12 >70 км позёмок {метель} 10/10 300 м
[Sc]
-6.8 998.8 896.6 -9.5 -6.7
12 18.12 В 10 >70 км позёмок {метель} 10/10 300 м
[Sc]
-5.1 999.5 897.9 -9.5 -4.7
15 18.12 В 9 н/о н/о -4.5 1000.4 898.9 -5.4 -4.1
18 18.12 В 9 н/о н/о -5.0 1000.3 898.6 -5.4 -4.1
21 18.12 В 10 н/о н/о -5.3 1001.1 899.2 -5.4 -4.1
00 19.12 В 11 н/о н/о -6.2 1001.5 899.3 -6.8 -4.1
03 19.12 В 14 н/о н/о -6.8 1000.9 898.5 -7.0 -4.1

 

Местоположение метеостанции SANAE (Антарктида): широта -71.70 долгота -2.80 высота над уровнем моря 817 м.

В архиве по умолчанию представлена погода в SANAE за последнюю неделю. Архивные данные за месяц целиком и за предыдущие месяцы, начиная с января 2011 года, Вы можете получить, выбрав интересующий диапазон дат из раскрывающегося списка и нажав кнопку "Ввод!".


*Определитесь, кто Вы:
робот инопланетянин человек

Внимание! Время в таблицах - всемирное. Для получения местного времени необходимо прибавить поправку, которая в SANAE равна 0 ч.

Смотрите также архив погоды в соседних городах и на ближайших метеорологических станциях:

Погода в Troll (Антарктида) (183 км)
Погода в Neumayer Station (Антарктида) (227 км)
Погода в Soerasen (Антарктида) (257 км)
Погода в Kohnen Ep9 (Антарктида) (378 км)
Погода в Nordenskiold Base (Антарктида) (386 км)
Погода в Maitri (Антарктида) (530 км)
Погода в Novolazarevskaja (Антарктида) (532 км)
Погода в Halley (Антарктида) (851 км)
Погода в Base Belgrano Ii (Антарктида) (1130 км)
Погода в Relay Station (Антарктида) (1487 км)

Пояснения к столбцам:

Ветер - указаны скорость ветра в м/с - средняя за 10 мин, порывы в срок и между сроками (в фигурных скобках) и направление, откуда дует ветер: С - северный, СВ - северо-восточный, В - восточный, ЮВ - юго-восточный, Ю - южный, ЮЗ - юго-западный, З - западный, СЗ - северо-западный.
Видимость - горизонтальная дальность видимости в метрах или километрах. При видимости от 1 до 10 км при отсутствии осадков обычно наблюдается дымка, при ухудшении видимости до 1 км и менее - туман. В сухую погоду видимость может ухудшаться дымом, пылью или мглою.
Явления - указаны атмосферные явления, наблюдавшиеся в срок или в последний час перед сроком; фигурными скобками обозначены явления, наблюдавшиеся между сроками (за 1-3 часа до срока); квадратными скобками обозначены град или гололедные отложения с указанием их диаметра в мм.
Облачность - указаны через наклонную черту общая и нижняя облачность в баллах и высота нижней границы облаков в метрах; квадратными скобками обозначены формы облаков: Ci - перистые, Cs - перисто-слоистые, Cc - перисто-кучевые, Ac - высококучевые, As - высокослоистые, Sc - слоисто-кучевые, Ns - слоисто-дождевые, Cu - кучевые, Cb - кучево-дождевые. Подробнее классификацию облаков см. в Атласе облаков (PDF).
T - Температура воздуха - температура, измеренная на высоте 2 м над землей.
Td - Температура точки росы - температура, при понижении до которой содержащийся в воздухе водяной пар достигнет насыщения.
f - Относительная влажность воздуха - влажноcть воздуха, измеренная на высоте 2 м над землей.
Te - Эффективная температура - температура, которую ощущает одетый по сезону человек в тени. Характеристика душности погоды. При расчете учитывается влияние влажности воздуха и скорости ветра на теплоощущения человека.
Tes - Эффективная температура на солнце - температура, которую ощущает человек, с поправкой на солнечный нагрев. Характеристика знойности погоды. Зависит от высоты солнца над горизонтом, облачности и скорости ветра. Ночью, в пасмурную погоду, а также при ветре 12 м/с и более поправка равна нулю.
P - Атмосферное давление - приведенное к уровню моря атмосферное давление.
Po - Атмосферное давление - измеренное на уровне метеостанции атмосферное давление.
Tmin - Минимальная температура - минимум температуры воздуха на высоте 2 м над землей.
Tmax - Максимальная температура - максимум температуры воздуха на высоте 2 м над землей.
R - Количество осадков - Количество выпавших осадков за период времени, мм. При наведении курсора мыши на число - период времени, за который выпало указанное количество осадков.
R24 - Количество осадков - Количество выпавших осадков за 24 часа, мм.
S - Снежный покров - Высота снежного покрова, см. При наведении курсора мыши на число - состояние снежного покрова и степень покрытия местности в баллах.